Time,TemperatureF,DewpointF,PressureIn,WindDirection,WindDirectionDegrees,WindSpeedMPH,WindSpeedGustMPH,Humidity,HourlyPrecipIn,Conditions,Clouds,dailyrainin,SolarRadiationWatts/m^2,SoftwareType,DateUTC
2013-09-13 00:00:00,74.0,65.2,29.94,NE,43,2.0,3.0,74,0.00,CLR,CLR,0.00,0.0,WeatherDisplay:10.37,2013-09-13 05:00:00,
2013-09-13 00:10:00,73.7,64.9,29.94,NE,36,1.0,3.0,74,0.00,SCT,SCT,0.00,0.0,WeatherDisplay:10.37,2013-09-13 05:10:00,
2013-09-13 00:20:00,73.5,65.1,29.94,NE,45,1.0,3.0,75,0.00,SCT,SCT,0.00,0.0,WeatherDisplay:10.37,2013-09-13 05:20:00,
2013-09-13 00:30:00,73.1,65.1,29.94,NE,48,1.0,4.0,76,0.00,SCT,SCT,0.00,0.0,WeatherDisplay:10.37,2013-09-13 05:30:00,
2013-09-13 00:40:00,72.9,65.3,29.94,NE,40,1.0,4.0,77,0.00,SCT,SCT,0.00,0.0,WeatherDisplay:10.37,2013-09-13 05:40:00,
2013-09-13 00:50:00,72.7,65.1,29.94,NE,34,1.0,3.0,77,0.00,SCT,SCT,0.00,0.0,WeatherDisplay:10.37,2013-09-13 05:50:00,
2013-09-13 01:00:00,72.7,64.7,29.94,North,8,2.0,6.0,76,0.00,SCT,SCT,0.00,0.0,WeatherDisplay:10.37,2013-09-13 06:00:00,
2013-09-13 01:10:00,73.1,64.3,29.94,North,360,3.0,8.0,74,0.00,BKN,BKN,0.00,0.0,WeatherDisplay:10.37,2013-09-13 06:10:00,
2013-09-13 01:20:00,72.7,64.3,29.95,North,352,2.0,6.0,75,0.00,BKN,BKN,0.00,0.0,WeatherDisplay:10.37,2013-09-13 06:20:00,
2013-09-13 01:30:00,72.1,63.7,29.94,NNE,26,5.0,8.0,75,0.00,BKN,BKN,0.00,0.0,WeatherDisplay:10.37,2013-09-13 06:30:00,
2013-09-13 01:40:00,72.0,63.3,29.95,NNE,22,6.0,12.0,74,0.00,BKN,BKN,0.00,0.0,WeatherDisplay:10.37,2013-09-13 06:40:00,
2013-09-13 01:50:00,71.8,63.1,29.95,NNE,13,5.0,10.0,74,0.00,CLR,CLR,0.00,0.0,WeatherDisplay:10.37,2013-09-13 06:50:00,
2013-09-13 02:00:00,71.7,62.6,29.95,NE,34,3.0,10.0,73,0.00,CLR,CLR,0.00,0.0,WeatherDisplay:10.37,2013-09-13 07:00:00,
2013-09-13 02:10:00,71.4,61.9,29.95,NNE,19,5.0,12.0,72,0.00,CLR,CLR,0.00,0.0,WeatherDisplay:10.37,2013-09-13 07:10:00,
2013-09-13 02:20:00,71.1,61.6,29.95,NNE,23,5.0,9.0,72,0.00,CLR,CLR,0.00,0.0,WeatherDisplay:10.37,2013-09-13 07:20:00,
2013-09-13 02:30:00,70.8,61.3,29.95,NNE,12,5.0,8.0,72,0.00,CLR,CLR,0.00,0.0,WeatherDisplay:10.37,2013-09-13 07:30:00,
2013-09-13 02:40:00,70.5,61.0,29.95,NNE,15,2.0,8.0,72,0.00,CLR,CLR,0.00,0.0,WeatherDisplay:10.37,2013-09-13 07:40:00,
2013-09-13 02:50:00,70.1,61.0,29.95,North,9,5.0,8.0,73,0.00,CLR,CLR,0.00,0.0,WeatherDisplay:10.37,2013-09-13 07:50:00,
2013-09-13 03:00:00,69.7,61.0,29.95,North,6,3.0,7.0,74,0.00,CLR,CLR,0.00,0.0,WeatherDisplay:10.37,2013-09-13 08:00:00,
2013-09-13 03:10:00,69.4,60.8,29.95,NNE,19,5.0,8.0,74,0.00,CLR,CLR,0.00,0.0,WeatherDisplay:10.37,2013-09-13 08:10:00,
2013-09-13 03:20:00,69.2,60.6,29.95,North,8,5.0,10.0,74,0.00,CLR,CLR,0.00,0.0,WeatherDisplay:10.37,2013-09-13 08:20:00,
2013-09-13 03:30:00,69.0,60.4,29.95,North,8,5.0,9.0,74,0.00,CLR,CLR,0.00,0.0,WeatherDisplay:10.37,2013-09-13 08:30:00,
2013-09-13 03:40:00,68.6,60.0,29.95,North,10,5.0,8.0,74,0.00,CLR,CLR,0.00,0.0,WeatherDisplay:10.37,2013-09-13 08:40:00,
2013-09-13 03:50:00,68.5,59.5,29.95,NNE,17,5.0,10.0,73,0.00,CLR,CLR,0.00,0.0,WeatherDisplay:10.37,2013-09-13 08:50:00,
2013-09-13 04:00:00,68.3,59.0,29.95,North,5,3.0,9.0,72,0.00,CLR,CLR,0.00,0.0,WeatherDisplay:10.37,2013-09-13 09:00:00,
2013-09-13 04:10:00,68.1,58.7,29.95,NNE,15,2.0,8.0,72,0.00,CLR,CLR,0.00,0.0,WeatherDisplay:10.37,2013-09-13 09:10:00,
2013-09-13 04:20:00,67.7,58.7,29.96,North,3,3.0,5.0,73,0.00,CLR,CLR,0.00,0.0,WeatherDisplay:10.37,2013-09-13 09:20:00,
2013-09-13 04:30:00,67.3,58.7,29.96,North,3,1.0,4.0,74,0.00,CLR,CLR,0.00,0.0,WeatherDisplay:10.37,2013-09-13 09:30:00,
2013-09-13 04:40:00,66.9,58.7,29.96,North,354,1.0,6.0,75,0.00,CLR,CLR,0.00,0.0,WeatherDisplay:10.37,2013-09-13 09:40:00,
2013-09-13 04:50:00,66.5,58.3,29.97,North,1,3.0,7.0,75,0.00,CLR,CLR,0.00,0.0,WeatherDisplay:10.37,2013-09-13 09:50:00,
2013-09-13 05:00:00,66.3,58.1,29.97,NNE,20,3.0,8.0,75,0.00,CLR,CLR,0.00,0.0,WeatherDisplay:10.37,2013-09-13 10:00:00,
2013-09-13 05:10:00,66.0,58.2,29.97,North,5,2.0,7.0,76,0.00,CLR,CLR,0.00,0.0,WeatherDisplay:10.37,2013-09-13 10:10:00,
2013-09-13 05:20:00,65.7,57.9,29.97,North,10,3.0,6.0,76,0.00,CLR,CLR,0.00,0.0,WeatherDisplay:10.37,2013-09-13 10:20:00,
2013-09-13 05:30:00,65.4,58.0,29.97,NNE,21,3.0,6.0,77,0.00,CLR,CLR,0.00,0.0,WeatherDisplay:10.37,2013-09-13 10:30:00,
2013-09-13 05:40:00,65.2,57.8,29.97,NNE,12,3.0,7.0,77,0.00,CLR,CLR,0.00,0.0,WeatherDisplay:10.37,2013-09-13 10:40:00,
2013-09-13 05:50:00,65.1,57.7,29.97,NNE,26,2.0,10.0,77,0.00,CLR,CLR,0.00,0.0,WeatherDisplay:10.37,2013-09-13 10:50:00,
2013-09-13 06:00:00,64.9,57.2,29.98,NNE,22,5.0,9.0,76,0.00,CLR,CLR,0.00,0.0,WeatherDisplay:10.37,2013-09-13 11:00:00,
2013-09-13 06:10:00,64.7,57.0,29.98,NNE,21,3.0,8.0,76,0.00,CLR,CLR,0.00,0.0,WeatherDisplay:10.37,2013-09-13 11:10:00,
2013-09-13 06:20:00,64.4,57.0,29.98,NNE,16,6.0,10.0,77,0.00,CLR,CLR,0.00,0.0,WeatherDisplay:10.37,2013-09-13 11:20:00,
2013-09-13 06:30:00,64.1,56.7,29.98,North,7,6.0,10.0,77,0.00,CLR,CLR,0.00,0.0,WeatherDisplay:10.37,2013-09-13 11:30:00,
2013-09-13 06:40:00,63.8,56.4,29.98,NNE,17,5.0,6.0,77,0.00,CLR,CLR,0.00,0.0,WeatherDisplay:10.37,2013-09-13 11:40:00,
2013-09-13 06:50:00,63.6,56.6,29.99,NNE,15,5.0,9.0,78,0.00,CLR,CLR,0.00,0.0,WeatherDisplay:10.37,2013-09-13 11:50:00,
2013-09-13 07:00:00,63.6,56.6,29.99,NNE,28,3.0,8.0,78,0.00,CLR,CLR,0.00,0.0,WeatherDisplay:10.37,2013-09-13 12:00:00,
2013-09-13 07:10:00,63.7,56.7,29.99,NNE,27,3.0,9.0,78,0.00,CLR,CLR,0.00,0.0,WeatherDisplay:10.37,2013-09-13 12:10:00,
2013-09-13 07:20:00,63.6,56.6,29.99,NNE,21,5.0,7.0,78,0.00,CLR,CLR,0.00,0.0,WeatherDisplay:10.37,2013-09-13 12:20:00,
2013-09-13 07:30:00,63.6,56.6,29.99,NNE,20,3.0,10.0,78,0.00,CLR,CLR,0.00,0.0,WeatherDisplay:10.37,2013-09-13 12:30:00,
2013-09-13 07:40:00,64.3,56.9,30.00,NNE,27,5.0,12.0,77,0.00,CLR,CLR,0.00,0.0,WeatherDisplay:10.37,2013-09-13 12:40:00,
2013-09-13 07:50:00,64.6,56.9,30.00,NNE,20,6.0,10.0,76,0.00,CLR,CLR,0.00,0.0,WeatherDisplay:10.37,2013-09-13 12:50:00,
2013-09-13 08:00:00,64.9,57.2,30.00,NNE,22,5.0,13.0,76,0.00,CLR,CLR,0.00,0.0,WeatherDisplay:10.37,2013-09-13 13:00:00,
2013-09-13 08:10:00,65.2,57.1,30.00,NE,38,7.0,12.0,75,0.00,CLR,CLR,0.00,0.0,WeatherDisplay:10.37,2013-09-13 13:10:00,
2013-09-13 08:20:00,65.6,57.5,30.00,NNE,20,9.0,14.0,75,0.00,CLR,CLR,0.00,0.0,WeatherDisplay:10.37,2013-09-13 13:20:00,
2013-09-13 08:30:00,66.2,57.6,30.00,NNE,33,5.0,12.0,74,0.00,CLR,CLR,0.00,0.0,WeatherDisplay:10.37,2013-09-13 13:30:00,
2013-09-13 08:40:00,66.8,57.5,30.00,NE,39,7.0,12.0,72,0.00,CLR,CLR,0.00,0.0,WeatherDisplay:10.37,2013-09-13 13:40:00,
2013-09-13 08:50:00,67.4,58.1,30.00,NE,41,3.0,14.0,72,0.00,CLR,CLR,0.00,0.0,WeatherDisplay:10.37,2013-09-13 13:50:00,
2013-09-13 09:00:00,67.7,57.9,30.01,NNE,28,7.0,14.0,71,0.00,CLR,CLR,0.00,0.0,WeatherDisplay:10.37,2013-09-13 14:00:00,
2013-09-13 09:10:00,68.3,58.5,30.01,NNE,32,5.0,14.0,71,0.00,CLR,CLR,0.00,0.0,WeatherDisplay:10.37,2013-09-13 14:10:00,
2013-09-13 09:20:00,69.1,58.5,30.01,NE,35,5.0,12.0,69,0.00,CLR,CLR,0.00,0.0,WeatherDisplay:10.37,2013-09-13 14:20:00,
2013-09-13 09:30:00,69.2,58.2,30.01,NE,39,8.0,15.0,68,0.00,CLR,CLR,0.00,0.0,WeatherDisplay:10.37,2013-09-13 14:30:00,
2013-09-13 09:40:00,69.7,59.0,30.01,NE,41,8.0,13.0,69,0.00,CLR,CLR,0.00,0.0,WeatherDisplay:10.37,2013-09-13 14:40:00,
2013-09-13 09:50:00,70.4,59.3,30.01,NE,45,3.0,12.0,68,0.00,CLR,CLR,0.00,0.0,WeatherDisplay:10.37,2013-09-13 14:50:00,
2013-09-13 10:00:00,71.2,59.7,30.01,NE,36,6.0,10.0,67,0.00,CLR,CLR,0.00,0.0,WeatherDisplay:10.37,2013-09-13 15:00:00,
2013-09-13 10:10:00,71.6,59.6,30.01,NE,47,5.0,12.0,66,0.00,CLR,CLR,0.00,0.0,WeatherDisplay:10.37,2013-09-13 15:10:00,
2013-09-13 10:20:00,71.8,60.3,30.01,NE,35,3.0,12.0,67,0.00,CLR,CLR,0.00,0.0,WeatherDisplay:10.37,2013-09-13 15:20:00,
2013-09-13 10:30:00,71.9,59.5,30.01,NNE,26,7.0,12.0,65,0.00,CLR,CLR,0.00,0.0,WeatherDisplay:10.37,2013-09-13 15:30:00,
2013-09-13 10:40:00,72.4,59.5,30.01,NNE,33,6.0,12.0,64,0.00,CLR,CLR,0.00,0.0,WeatherDisplay:10.37,2013-09-13 15:40:00,
2013-09-13 10:50:00,73.1,58.8,30.01,NNE,29,8.0,13.0,61,0.00,CLR,CLR,0.00,0.0,WeatherDisplay:10.37,2013-09-13 15:50:00,
2013-09-13 11:00:00,73.7,58.0,30.01,NE,40,8.0,15.0,58,0.00,CLR,CLR,0.00,0.0,WeatherDisplay:10.37,2013-09-13 16:00:00,
2013-09-13 11:10:00,73.7,57.5,30.01,NE,41,10.0,15.0,57,0.00,CLR,CLR,0.00,0.0,WeatherDisplay:10.37,2013-09-13 16:10:00,
2013-09-13 11:20:00,74.3,57.5,30.01,NE,35,7.0,14.0,56,0.00,CLR,CLR,0.00,0.0,WeatherDisplay:10.37,2013-09-13 16:20:00,
2013-09-13 11:30:00,74.2,57.5,30.01,NE,39,9.0,15.0,56,0.00,CLR,CLR,0.00,0.0,WeatherDisplay:10.37,2013-09-13 16:30:00,
2013-09-13 11:40:00,74.6,56.9,30.00,NE,38,8.0,16.0,54,0.00,CLR,CLR,0.00,0.0,WeatherDisplay:10.37,2013-09-13 16:40:00,
2013-09-13 11:50:00,75.9,57.5,30.00,NE,36,6.0,12.0,53,0.00,CLR,CLR,0.00,0.0,WeatherDisplay:10.37,2013-09-13 16:50:00,
2013-09-13 12:00:00,75.4,56.0,30.00,NE,45,9.0,17.0,51,0.00,SCT,SCT,0.00,0.0,WeatherDisplay:10.37,2013-09-13 17:00:00,
2013-09-13 12:10:00,75.9,55.4,30.00,NE,36,8.0,17.0,49,0.00,SCT,SCT,0.00,0.0,WeatherDisplay:10.37,2013-09-13 17:10:00,
2013-09-13 12:20:00,76.3,55.2,29.99,NE,39,8.0,15.0,48,0.00,CLR,CLR,0.00,0.0,WeatherDisplay:10.37,2013-09-13 17:20:00,
2013-09-13 12:30:00,76.2,55.1,29.99,NNE,25,8.0,18.0,48,0.00,CLR,CLR,0.00,0.0,WeatherDisplay:10.37,2013-09-13 17:30:00,
2013-09-13 12:40:00,76.6,53.7,29.99,NE,48,9.0,14.0,45,0.00,CLR,CLR,0.00,0.0,WeatherDisplay:10.37,2013-09-13 17:40:00,
2013-09-13 12:50:00,77.3,56.0,29.99,NE,49,5.0,15.0,48,0.00,CLR,CLR,0.00,0.0,WeatherDisplay:10.37,2013-09-13 17:50:00,
2013-09-13 13:00:00,77.7,55.9,29.99,NE,36,5.0,15.0,47,0.00,CLR,CLR,0.00,0.0,WeatherDisplay:10.37,2013-09-13 18:00:00,
2013-09-13 13:10:00,77.1,55.3,29.98,NNE,23,7.0,15.0,47,0.00,FEW,FEW,0.00,0.0,WeatherDisplay:10.37,2013-09-13 18:10:00,
2013-09-13 13:20:00,77.0,55.8,29.98,NE,46,5.0,16.0,48,0.00,FEW,FEW,0.00,0.0,WeatherDisplay:10.37,2013-09-13 18:20:00,
2013-09-13 13:30:00,77.6,55.2,29.98,NE,48,7.0,15.0,46,0.00,FEW,FEW,0.00,0.0,WeatherDisplay:10.37,2013-09-13 18:30:00,
2013-09-13 13:40:00,77.9,54.8,29.98,North,360,6.0,12.0,45,0.00,FEW,FEW,0.00,0.0,WeatherDisplay:10.37,2013-09-13 18:40:00,
2013-09-13 13:50:00,77.7,55.3,29.97,NNE,31,8.0,15.0,46,0.00,FEW,FEW,0.00,0.0,WeatherDisplay:10.37,2013-09-13 18:50:00,
2013-09-13 14:00:00,77.4,53.8,29.97,NNE,20,10.0,15.0,44,0.00,FEW,FEW,0.00,0.0,WeatherDisplay:10.37,2013-09-13 19:00:00,
2013-09-13 14:10:00,77.3,54.3,29.97,NE,36,7.0,15.0,45,0.00,FEW,FEW,0.00,0.0,WeatherDisplay:10.37,2013-09-13 19:10:00,
2013-09-13 14:20:00,77.7,54.6,29.96,NNE,24,10.0,16.0,45,0.00,SCT,SCT,0.00,0.0,WeatherDisplay:10.37,2013-09-13 19:20:00,
2013-09-13 14:30:00,77.4,54.4,29.96,NNE,13,6.0,15.0,45,0.00,SCT,SCT,0.00,0.0,WeatherDisplay:10.37,2013-09-13 19:30:00,
2013-09-13 14:40:00,77.9,56.0,29.97,NNE,20,7.0,16.0,47,0.00,FEW,FEW,0.00,0.0,WeatherDisplay:10.37,2013-09-13 19:40:00,
2013-09-13 14:50:00,78.3,55.2,29.96,NE,43,7.0,13.0,45,0.00,FEW,FEW,0.00,0.0,WeatherDisplay:10.37,2013-09-13 19:50:00,
2013-09-13 15:00:00,77.2,54.8,29.96,NNE,31,7.0,17.0,46,0.00,FEW,FEW,0.00,0.0,WeatherDisplay:10.37,2013-09-13 20:00:00,
2013-09-13 15:10:00,77.7,54.0,29.96,NNE,29,8.0,14.0,44,0.00,SCT,SCT,0.00,0.0,WeatherDisplay:10.37,2013-09-13 20:10:00,
2013-09-13 15:20:00,77.6,54.5,29.96,NE,39,9.0,20.0,45,0.00,SCT,SCT,0.00,0.0,WeatherDisplay:10.37,2013-09-13 20:20:00,
2013-09-13 15:30:00,77.8,54.8,29.95,NE,44,5.0,12.0,45,0.00,SCT,SCT,0.00,0.0,WeatherDisplay:10.37,2013-09-13 20:30:00,
2013-09-13 15:40:00,76.8,55.1,29.96,NNE,20,6.0,14.0,47,0.00,CLR,CLR,0.00,0.0,WeatherDisplay:10.37,2013-09-13 20:40:00,
2013-09-13 15:50:00,77.3,55.5,29.96,NE,42,9.0,16.0,47,0.00,CLR,CLR,0.00,0.0,WeatherDisplay:10.37,2013-09-13 20:50:00,
2013-09-13 16:00:00,76.4,54.7,29.96,NNE,18,7.0,13.0,47,0.00,CLR,CLR,0.00,0.0,WeatherDisplay:10.37,2013-09-13 21:00:00,
2013-09-13 16:10:00,77.2,54.2,29.96,NNE,16,9.0,13.0,45,0.00,CLR,CLR,0.00,0.0,WeatherDisplay:10.37,2013-09-13 21:10:00,
2013-09-13 16:20:00,77.5,55.7,29.96,NNE,33,5.0,15.0,47,0.00,CLR,CLR,0.00,0.0,WeatherDisplay:10.37,2013-09-13 21:20:00,
2013-09-13 16:30:00,77.3,56.1,29.96,NE,45,7.0,12.0,48,0.00,FEW,FEW,0.00,0.0,WeatherDisplay:10.37,2013-09-13 21:30:00,
2013-09-13 16:40:00,75.9,56.5,29.96,NE,51,3.0,17.0,51,0.00,FEW,FEW,0.00,0.0,WeatherDisplay:10.37,2013-09-13 21:40:00,
2013-09-13 16:50:00,75.8,56.4,29.96,NNE,31,7.0,12.0,51,0.00,FEW,FEW,0.00,0.0,WeatherDisplay:10.37,2013-09-13 21:50:00,
2013-09-13 17:00:00,77.0,56.4,29.96,NE,37,6.0,12.0,49,0.00,FEW,FEW,0.00,0.0,WeatherDisplay:10.37,2013-09-13 22:00:00,
2013-09-13 17:10:00,76.6,54.3,29.96,NE,35,9.0,12.0,46,0.00,SCT,SCT,0.00,0.0,WeatherDisplay:10.37,2013-09-13 22:10:00,
2013-09-13 17:20:00,75.3,54.3,29.96,NNE,32,6.0,12.0,48,0.00,SCT,SCT,0.00,0.0,WeatherDisplay:10.37,2013-09-13 22:20:00,
2013-09-13 17:30:00,75.0,55.1,29.96,NNE,30,5.0,12.0,50,0.00,BKN,BKN,0.00,0.0,WeatherDisplay:10.37,2013-09-13 22:30:00,
2013-09-13 17:40:00,75.8,54.1,29.96,North,7,9.0,15.0,47,0.00,BKN,BKN,0.00,0.0,WeatherDisplay:10.37,2013-09-13 22:40:00,
2013-09-13 17:50:00,74.8,54.4,29.96,NNE,31,7.0,14.0,49,0.00,SCT,SCT,0.00,0.0,WeatherDisplay:10.37,2013-09-13 22:50:00,
2013-09-13 18:00:00,73.7,55.0,29.96,NE,36,6.0,12.0,52,0.00,SCT,SCT,0.00,0.0,WeatherDisplay:10.37,2013-09-13 23:00:00,
2013-09-13 18:10:00,73.6,54.9,29.96,NNE,20,6.0,10.0,52,0.00,SCT,SCT,0.00,0.0,WeatherDisplay:10.37,2013-09-13 23:10:00,
2013-09-13 18:20:00,73.3,55.1,29.96,NE,41,5.0,12.0,53,0.00,SCT,SCT,0.00,0.0,WeatherDisplay:10.37,2013-09-13 23:20:00,
2013-09-13 18:30:00,73.3,55.1,29.96,NE,40,6.0,10.0,53,0.00,SCT,SCT,0.00,0.0,WeatherDisplay:10.37,2013-09-13 23:30:00,
2013-09-13 18:40:00,73.0,54.3,29.96,NE,36,6.0,12.0,52,0.00,SCT,SCT,0.00,0.0,WeatherDisplay:10.37,2013-09-13 23:40:00,
2013-09-13 18:50:00,72.5,54.4,29.96,NE,45,7.0,12.0,53,0.00,CLR,CLR,0.00,0.0,WeatherDisplay:10.37,2013-09-13 23:50:00,
2013-09-13 19:00:00,71.5,55.0,29.96,NE,45,5.0,9.0,56,0.00,CLR,CLR,0.00,0.0,WeatherDisplay:10.37,2013-09-14 00:00:00,
2013-09-13 19:10:00,70.7,55.2,29.96,NE,39,3.0,8.0,58,0.00,FEW,FEW,0.00,0.0,WeatherDisplay:10.37,2013-09-14 00:10:00,
2013-09-13 19:20:00,70.1,55.1,29.96,NE,43,5.0,9.0,59,0.00,FEW,FEW,0.00,0.0,WeatherDisplay:10.37,2013-09-14 00:20:00,
2013-09-13 19:30:00,69.6,55.1,29.97,NE,36,3.0,8.0,60,0.00,CLR,CLR,0.00,0.0,WeatherDisplay:10.37,2013-09-14 00:30:00,
2013-09-13 19:40:00,69.2,55.2,29.97,NE,46,3.0,8.0,61,0.00,CLR,CLR,0.00,0.0,WeatherDisplay:10.37,2013-09-14 00:40:00,
2013-09-13 19:50:00,68.6,55.1,29.97,NE,40,3.0,6.0,62,0.00,CLR,CLR,0.00,0.0,WeatherDisplay:10.37,2013-09-14 00:50:00,
2013-09-13 20:00:00,68.2,55.1,29.98,NE,45,1.0,6.0,63,0.00,CLR,CLR,0.00,0.0,WeatherDisplay:10.37,2013-09-14 01:00:00,
2013-09-13 20:10:00,67.7,55.1,29.98,NE,37,2.0,6.0,64,0.00,CLR,CLR,0.00,0.0,WeatherDisplay:10.37,2013-09-14 01:10:00,
2013-09-13 20:20:00,67.3,55.1,29.98,NE,39,2.0,4.0,65,0.00,CLR,CLR,0.00,0.0,WeatherDisplay:10.37,2013-09-14 01:20:00,
2013-09-13 20:30:00,66.9,55.2,29.99,NNE,29,1.0,4.0,66,0.00,CLR,CLR,0.00,0.0,WeatherDisplay:10.37,2013-09-14 01:30:00,
2013-09-13 20:40:00,66.5,55.2,29.99,NE,39,0.0,4.0,67,0.00,CLR,CLR,0.00,0.0,WeatherDisplay:10.37,2013-09-14 01:40:00,
2013-09-13 20:50:00,65.9,55.1,29.99,NE,45,0.0,3.0,68,0.00,CLR,CLR,0.00,0.0,WeatherDisplay:10.37,2013-09-14 01:50:00,
2013-09-13 21:00:00,65.8,55.3,30.00,NE,44,1.0,4.0,69,0.00,CLR,CLR,0.00,0.0,WeatherDisplay:10.37,2013-09-14 02:00:00,
2013-09-13 21:10:00,65.2,55.2,30.00,NE,51,1.0,2.0,70,0.00,CLR,CLR,0.00,0.0,WeatherDisplay:10.37,2013-09-14 02:10:00,
2013-09-13 21:20:00,64.8,55.2,30.00,NE,41,1.0,2.0,71,0.00,CLR,CLR,0.00,0.0,WeatherDisplay:10.37,2013-09-14 02:20:00,
2013-09-13 21:30:00,64.5,55.2,30.00,NE,42,0.0,2.0,72,0.00,CLR,CLR,0.00,0.0,WeatherDisplay:10.37,2013-09-14 02:30:00,
2013-09-13 21:40:00,64.3,55.1,30.00,NE,50,0.0,2.0,72,0.00,CLR,CLR,0.00,0.0,WeatherDisplay:10.37,2013-09-14 02:40:00,
2013-09-13 21:50:00,64.2,54.9,30.00,East,81,0.0,2.0,72,0.00,CLR,CLR,0.00,0.0,WeatherDisplay:10.37,2013-09-14 02:50:00,
2013-09-13 22:00:00,64.1,54.9,30.00,NE,54,1.0,4.0,72,0.00,CLR,CLR,0.00,0.0,WeatherDisplay:10.37,2013-09-14 03:00:00,
2013-09-13 22:10:00,64.0,54.8,30.01,NE,44,0.0,4.0,72,0.00,CLR,CLR,0.00,0.0,WeatherDisplay:10.37,2013-09-14 03:10:00,
2013-09-13 22:20:00,63.7,54.9,30.01,NE,52,2.0,4.0,73,0.00,CLR,CLR,0.00,0.0,WeatherDisplay:10.37,2013-09-14 03:20:00,
2013-09-13 22:30:00,63.4,54.6,30.01,NE,53,1.0,3.0,73,0.00,CLR,CLR,0.00,0.0,WeatherDisplay:10.37,2013-09-14 03:30:00,
2013-09-13 22:40:00,63.1,54.7,30.01,NE,54,1.0,3.0,74,0.00,CLR,CLR,0.00,0.0,WeatherDisplay:10.37,2013-09-14 03:40:00,
2013-09-13 22:50:00,63.0,54.6,30.01,NE,47,1.0,3.0,74,0.00,CLR,CLR,0.00,0.0,WeatherDisplay:10.37,2013-09-14 03:50:00,
2013-09-13 23:00:00,62.9,54.5,30.01,NE,48,1.0,4.0,74,0.00,CLR,CLR,0.00,0.0,WeatherDisplay:10.37,2013-09-14 04:00:00,
2013-09-13 23:10:00,62.6,54.6,30.01,NE,47,1.0,4.0,75,0.00,CLR,CLR,0.00,0.0,WeatherDisplay:10.37,2013-09-14 04:10:00,
2013-09-13 23:20:00,62.2,54.5,30.01,NE,49,2.0,4.0,76,0.00,CLR,CLR,0.00,0.0,WeatherDisplay:10.37,2013-09-14 04:20:00,
2013-09-13 23:30:00,61.8,54.1,30.01,NE,47,0.0,4.0,76,0.00,CLR,CLR,0.00,0.0,WeatherDisplay:10.37,2013-09-14 04:30:00,
2013-09-13 23:40:00,61.4,54.1,30.01,NE,45,1.0,3.0,77,0.00,CLR,CLR,0.00,0.0,WeatherDisplay:10.37,2013-09-14 04:40:00,
2013-09-13 23:50:00,61.5,53.8,30.01,NE,49,1.0,4.0,76,0.00,CLR,CLR,0.00,0.0,WeatherDisplay:10.37,2013-09-14 04:50:00,